Location: Arthez
(43.0833°N, 0.2500°W)
Time: 04:04:05
(UTC+00:00)

Milstar 3 Cent rocket - Pass Details

Date: 23 October 2021
Orbit: 706 x 5147 km, 28.3° (Epoch: 29 November)

Event Time Altitude Azimuth Distance (km) Brightness Sun altitude
Rises 19:53:44 0° 230° (SW) 3,803 6.0 -31.2°
Reaches altitude 10° 19:56:11 10° 220° (SW) 3,153 5.4 -31.7°
Enters shadow 20:01:48 32° 172° (S) 2,597 4.4 -32.7°
